Regional Weather Roundup
Issued by NWS Kansas City/Pleasant Hill, MO

Home | Current Version | Previous Version | Text Only | Print | Product List | Glossary On
Versions: 1 2 3 4 5 6 7 8 9 10 11 12 13 14 15 16 17 18 19 20 21 22 23 24 25 26 27 28 29 30 31 32 33 34 35 36 37 38 39 40 41 42 43 44 45 46 47 48 49 50
000
ASUS43 KEAX 011310
RWREAX

WEATHER ROUNDUP FOR EASTERN KANSAS AND NORTHWEST MISSOURI
NATIONAL WEATHER SERVICE KANSAS CITY/PLEASANT HILL MO
800 AM CDT TUE SEP 01 2015

KSZ040-057-103>105-MOZ028-029-037-043-011400-
...KANSAS CITY METROPOLITAN AREA...

CITY           SKY/WX    TMP DP  RH WIND       PRES   REMARKS
K.C. INTL      MOSUNNY   75  68  78 S10       30.03R
K.C. DOWNTOWN  MOSUNNY   76  68  76 S10       30.03R
LEES SUMMIT    MOSUNNY   73  67  81 S9        30.06R
OLATHE - IXD   MOSUNNY   71  68  90 S9        30.05R FOG
OLATHE - OJC   SUNNY     71  68  90 S7        30.04S
LAWRENCE       PTSUNNY   72  68  87 SE6       30.03R

$$

MOZ001>008-011>017-020>025-030>033-038>040-044>046-053-054-011400-
...NORTHERN AND CENTRAL MISSOURI...

CITY           SKY/WX    TMP DP  RH WIND       PRES   REMARKS
ST. JOSEPH     SUNNY     73  69  87 S7        30.01R
MOSBY          MOSUNNY   72  70  94 SE5       30.04R
WARRENSBURG    SUNNY     70  64  83 S6        30.06R
WHITEMAN AFB   SUNNY     72  67  85 SW8       30.06R
CLINTON        SUNNY     73  68  83 CALM      30.08R
SEDALIA        SUNNY     74  67  78 S7        30.08R
WARSAW         NOT AVBL
CHILLICOTHE      N/A     73  70  90 S5        30.05R
KIRKSVILLE     SUNNY     73  68  84 S6        30.07R

$$

MOZ041-047>049-056>058-063>065-088>090-097-011400-
...EASTERN AND SOUTHERN MISSOURI...

CITY           SKY/WX    TMP DP  RH WIND       PRES   REMARKS
ST. LOUIS INTL MOSUNNY   78  69  73 SW6       30.10S
SPIRIT OF STL  SUNNY     74  71  91 CALM      30.08F
COLUMBIA       SUNNY     72  69  90 S7        30.09R
JEFFERSON CITY SUNNY     72  69  90 SE5       30.08S
ROLLA          SUNNY     73  68  84 S9        30.10S HAZE
OSAGE BEACH    SUNNY     72  66  83 S6        30.10R
SPRINGFIELD    SUNNY     72  66  81 SE9       30.10R
BRANSON        MOSUNNY   68  66  94 CALM      30.12S
JOPLIN         SUNNY     72  67  84 S6        30.08R
WEST PLAINS    SUNNY     70  67  90 CALM      30.14R

$$

IAZ060-094-KSZ022-034>040-054-083-096-NEZ052-066-093-011400-
...KANSAS...SOUTHEAST NEBRASKA AND IOWA...

CITY           SKY/WX    TMP DP  RH WIND       PRES   REMARKS
TOPEKA         SUNNY     73  69  87 SE3       30.01S
MANHATTAN      SUNNY     72  66  81 SW8       29.98S
EMPORIA        SUNNY     70  65  84 S10       30.02R
CHANUTE        SUNNY     71  68  90 SE6       30.05S
WICHITA        MOSUNNY   71  63  75 S6        30.02R
OMAHA          MOSUNNY   72  68  87 S13       29.95R
LINCOLN        PTSUNNY   71  66  84 S10       29.94S
FALLS CITY     SUNNY     72  68  87 S8        29.99R
LAMONI         SUNNY     70  68  93 S9        30.02R FOG
DES MOINES     MOSUNNY   72  68  87 S9        29.98R

$$



USA.gov is the U.S. government's official web portal to all federal, state and local government web resources and services.